Home   Weather   Ontario   Past weeks

Flag for USA Past Weather in Ontario, California, USA — Yesterday and Last 2 Weeks

Now
71 °F

Passing clouds.


Feels Like: 77 °F
Forecast: 57 / 83 °F
Wind: 3 mph from Southwest

Location: Ontario International Airport

Current Time: Apr 23, 2017 at 11:00:47 am

Latest Report: Apr 23, 2017 at 9:53 am


Visibility: 10 mi

Pressure: 29.84 "Hg

Humidity: 42%

Dew Point: 47 °F

Location of OntarioLocation

Past Weather in Ontario — Graph

°F

Ontario Temperature Yesterday

Maximum temperature yesterday: 93 °F (at 1:53 pm)
Minimum temperature yesterday: 62 °F (at 5:53 am)
Average temperature yesterday: 77 °F

High & Low Weather Summary for the Past Weeks

 TemperatureHumidityPressure
High93 °F (Apr 22, 1:53 pm)93% (Apr 13, 4:02 am)30.12 "Hg (Apr 13, 4:02 am)
Low47 °F (Apr 9, 3:53 am)8% (Apr 21, 3:53 pm)29.77 "Hg (Apr 22, 3:53 pm)
Average65 °F51%29.98 "Hg
* Reported Apr 8 9:53 am — Apr 23 9:53 am, Ontario, Weather by CustomWeather, © 2017

Note: Actual official high and low records may vary slightly from our data, if they occured in-between our weather recording intervals... More about our weather records

Advertising

Ontario Weather History for the Previous 24 Hours

Scroll right to see more
 ConditionsComfort  
Time TempWeatherWind HumidityBarometerVisibility
9:53 am
Sun, Apr 23
71 °FPassing clouds.3 mph42%29.84 "Hg10 mi
8:53 am67 °FScattered clouds.No wind55%29.84 "Hg10 mi
7:53 am65 °FScattered clouds.No wind59%29.83 "Hg10 mi
6:53 am60 °FPartly sunny.No wind67%29.83 "Hg10 mi
5:53 am60 °FPassing clouds.3 mph67%29.81 "Hg10 mi
4:53 am61 °FPassing clouds.3 mph67%29.80 "Hg10 mi
3:53 am62 °FPassing clouds.No wind60%29.79 "Hg10 mi
2:53 am64 °FPassing clouds.No wind54%29.79 "Hg10 mi
1:53 am66 °FPassing clouds.7 mph49%29.80 "Hg10 mi
12:53 am65 °FPassing clouds.3 mph44%29.81 "Hg10 mi
11:53 pm
Sat, Apr 22
65 °FPassing clouds.3 mph44%29.81 "Hg10 mi
10:53 pm71 °FPassing clouds.No wind34%29.81 "Hg10 mi
9:53 pm71 °FPassing clouds.No wind34%29.83 "Hg10 mi
8:53 pm76 °FPassing clouds.5 mph26%29.82 "Hg10 mi
7:53 pm79 °FPassing clouds.9 mph23%29.80 "Hg10 mi
6:53 pm83 °FScattered clouds.14 mph19%29.80 "Hg10 mi
5:53 pm87 °FScattered clouds.13 mph21%29.79 "Hg10 mi
4:53 pm90 °FScattered clouds.15 mph14%29.78 "Hg10 mi
3:53 pm92 °FScattered clouds.13 mph16%29.77 "Hg10 mi
2:53 pm93 °FScattered clouds.14 mph11%29.78 "Hg10 mi
1:53 pm93 °FPassing clouds.9 mph9%29.80 "Hg10 mi
12:53 pm90 °FPassing clouds.7 mph9%29.81 "Hg10 mi
11:53 am88 °FScattered clouds.3 mph10%29.84 "Hg10 mi
Weather by CustomWeather, © 2017

See weather overviewHow to use our weather pages